Hourly Data Report for October 18, 2015

All times are specified in Local Standard Time (LST). Add 1 hour to adjust for Daylight Saving Time where and when it is observed.

FREDERICTON
NEW BRUNSWICK

45°52'08.000" N
66°32'14.000" W
20.70 m
8101505
71700
YFC

Download Data

Hourly Data (October 2015)
Hourly Data Report for October 18, 2015
Temp Definition
°C
Dew Point Temp Definition
°C
Rel Hum Definition
%
Wind Dir Definition
10's deg

Wind Spd Definition
km/h
Visibility Definition
km
Stn Press Definition
kPa
Hmdx Definition


Wind Chill Definition


Weather Definition


TIME
00:00 Legend Double Dagger 1.6 0.4 92 29 11 16.1 101.21     LegendNANA
01:00 Legend Double Dagger 0.2 -0.4 96 28 8 16.1 101.21     LegendNANA
02:00 Legend Double Dagger -0.6 -1.2 96 26 8 16.1 101.23   -3 LegendNANA
03:00 Legend Double Dagger -0.5 -1.1 96 LegendMM 4 16.1 101.24   -2 LegendNANA
04:00 Legend Double Dagger -0.3 -1.2 94 29 13 16.1 101.25   -4 LegendNANA
05:00 Legend Double Dagger -0.6 -1.3 95 28 11 16.1 101.30   -4 LegendNANA
06:00 Legend Double Dagger 0.1 -1.4 89 29 15 16.1 101.32     LegendNANA
07:00 Legend Double Dagger 0.1 -1.5 89 26 8 16.1 101.37     LegendNANA
08:00 Legend Double Dagger -0.3 -1.9 89 27 11 16.1 101.43   -4 LegendNANA
09:00 Legend Double Dagger 0.8 -2.2 80 29 18 16.1 101.49     LegendNANA
10:00 Legend Double Dagger 1.7 -2.6 73 30 24 16.1 101.53     LegendNANA
11:00 Legend Double Dagger 3.0 -3.9 61 28 15 16.1 101.54     LegendNANA
12:00 Legend Double Dagger 2.2 -4.8 60 29 17 16.1 101.54     LegendNANA
13:00 Legend Double Dagger 2.0 -5.3 59 30 18 16.1 101.50     LegendNANA
14:00 Legend Double Dagger 2.0 -6.2 55 29 22 16.1 101.52     LegendNANA
15:00 Legend Double Dagger 2.4 -6.0 54 28 18 16.1 101.51     LegendNANA
16:00 Legend Double Dagger 2.0 -4.2 64 29 8 16.1 101.55     LegendNANA
17:00 Legend Double Dagger 1.4 -3.9 68 29 13 16.1 101.59     LegendNANA
18:00 Legend Double Dagger 0.4 -4.1 72 26 8 16.1 101.64     LegendNANA
19:00 Legend Double Dagger -1.5 -4.1 83 23 9 16.1 101.69   -5 LegendNANA
20:00 Legend Double Dagger -2.2 -4.2 86 23 11 16.1 101.70   -6 LegendNANA
21:00 Legend Double Dagger -2.1 -4.1 86 27 5 16.1 101.73   -4 LegendNANA
22:00 Legend Double Dagger -0.9 -4.4 77 28 9 16.1 101.74   -4 LegendNANA
23:00 Legend Double Dagger -1.0 -4.5 77 29 15 16.1 101.76   -6 LegendNANA

Notes on Data Quality.

Legend

  • E = Estimated
  • M = Missing
  • NA = Not Available
  • ‡ = Partner data that is not subject to review by the National Climate Archives
Date modified: